| Date Time MST |
Temp °F |
RH % |
DewPt °F |
Wind mph |
Dir ° |
Gust mph |
Dir ° |
Press in Hg |
Solar W/m^2 |
Prec in |
|---|---|---|---|---|---|---|---|---|---|---|
| 2026-05-05 00:35 | 41.9 | 87.4 | 38.4 | 6.6 | 320 | 8.5 | 337 | 24.779 | 0.5 | 0.00 |
| 2026-05-05 00:30 | 42.0 | 87.7 | 38.6 | 5.4 | 293 | 7.2 | 310 | 24.776 | 0.4 | 0.01 |
| 2026-05-05 00:25 | 42.1 | 86.7 | 38.4 | 8.8 | 295 | 10.7 | 309 | 24.775 | 0.4 | 0.01 |
| 2026-05-05 00:20 | 42.1 | 86.6 | 38.4 | 8.6 | 308 | 12.2 | 307 | 24.773 | 0.3 | 0.00 |
| 2026-05-05 00:15 | 42.2 | 85.7 | 38.2 | 9.1 | 312 | 12.0 | 313 | 24.775 | 0.3 | 0.00 |
| 2026-05-05 00:10 | 42.2 | 86.0 | 38.4 | 9.9 | 309 | 12.8 | 303 | 24.774 | 0.4 | 0.00 |
| 2026-05-05 00:05 | 42.3 | 85.6 | 38.3 | 10.1 | 296 | 13.1 | 291 | 24.774 | 0.4 | 0.00 |
| 2026-05-05 00:00 | 42.4 | 84.3 | 38.0 | 9.5 | 296 | 12.3 | 315 | 24.773 | 0.3 | 0.01 |
| 2026-05-04 23:55 | 42.6 | 83.8 | 38.0 | 9.9 | 305 | 14.9 | 316 | 24.772 | 0.2 | 0.00 |
| 2026-05-04 23:50 | 42.7 | 83.2 | 38.0 | 11.7 | 307 | 15.1 | 305 | 24.773 | 0.2 | 0.00 |
| 2026-05-04 23:45 | 43.0 | 82.8 | 38.1 | 11.3 | 315 | 13.7 | 317 | 24.775 | 0.2 | 0.01 |
| 2026-05-04 23:40 | 43.2 | 80.6 | 37.6 | 13.6 | 301 | 17.6 | 314 | 24.775 | 0.3 | 0.00 |
| 2026-05-04 23:35 | 43.4 | 81.4 | 38.1 | 14.2 | 325 | 17.8 | 322 | 24.774 | 0.2 | 0.00 |
| 2026-05-04 23:30 | 43.6 | 80.2 | 37.9 | 14.3 | 306 | 19.2 | 336 | 24.774 | 0.3 | 0.00 |
| 2026-05-04 23:25 | 43.7 | 80.6 | 38.2 | 12.4 | 331 | 18.5 | 324 | 24.774 | 0.2 | 0.00 |
| 2026-05-04 23:20 | 43.9 | 81.2 | 38.5 | 11.3 | 329 | 14.6 | 325 | 24.774 | 0.3 | 0.00 |
| 2026-05-04 23:15 | 44.0 | 79.7 | 38.1 | 11.8 | 318 | 15.9 | 318 | 24.774 | 0.3 | 0.00 |
| 2026-05-04 23:10 | 44.2 | 80.1 | 38.4 | 13.2 | 322 | 17.1 | 321 | 24.770 | 0.3 | 0.00 |
| 2026-05-04 23:05 | 44.5 | 79.1 | 38.4 | 14.1 | 324 | 20.4 | 301 | 24.770 | 0.3 | 0.00 |
| 2026-05-04 23:00 | 44.7 | 78.0 | 38.3 | 15.7 | 309 | 21.1 | 331 | 24.769 | 0.2 | 0.00 |
| 2026-05-04 22:55 | 44.7 | 78.2 | 38.3 | 15.5 | 296 | 19.6 | 314 | 24.769 | 0.2 | 0.00 |
| 2026-05-04 22:50 | 44.5 | 78.2 | 38.2 | 13.2 | 297 | 17.5 | 306 | 24.766 | 0.3 | 0.00 |
| 2026-05-04 22:45 | 44.4 | 79.9 | 38.6 | 10.8 | 295 | 14.2 | 274 | 24.760 | 0.4 | 0.00 |
| 2026-05-04 22:40 | 44.4 | 81.7 | 39.2 | 9.7 | 306 | 12.8 | 314 | 24.756 | 0.3 | 0.00 |
| 2026-05-04 22:35 | 44.5 | 81.6 | 39.2 | 11.6 | 333 | 15.3 | 327 | 24.752 | 0.4 | 0.00 |
| 2026-05-04 22:30 | 45.0 | 82.1 | 39.8 | 13.0 | 339 | 17.6 | 353 | 24.751 | 0.4 | 0.00 |
| 2026-05-04 22:25 | 46.3 | 80.0 | 40.5 | 16.9 | 351 | 22.7 | 356 | 24.747 | 0.3 | 0.00 |
| 2026-05-04 22:20 | 48.4 | 77.5 | 41.7 | 17.7 | 4 | 30.0 | 5 | 24.743 | 0.2 | 0.00 |
| 2026-05-04 22:15 | 49.5 | 85.9 | 45.4 | 8.5 | 353 | 11.1 | 350 | 24.734 | 0.4 | 0.00 |
| 2026-05-04 22:10 | 49.4 | 86.8 | 45.6 | 7.8 | 338 | 9.5 | 354 | 24.731 | 0.4 | 0.00 |
| Date Time MST |
Temp °C |
RH % |
DewPt °C |
Wind m/s |
Dir ° |
Gust m/s |
Dir ° |
Press hPa |
Solar W/m^2 |
Prec mm |
|---|---|---|---|---|---|---|---|---|---|---|
| 2026-05-05 00:35 | 5.5 | 87.4 | 3.6 | 2.9 | 320 | 3.8 | 337 | 839.12 | 0.5 | 0.00 |
| 2026-05-05 00:30 | 5.5 | 87.7 | 3.7 | 2.4 | 293 | 3.2 | 310 | 839.03 | 0.4 | 0.25 |
| 2026-05-05 00:25 | 5.6 | 86.7 | 3.6 | 4.0 | 295 | 4.8 | 309 | 838.99 | 0.4 | 0.25 |
| 2026-05-05 00:20 | 5.6 | 86.6 | 3.6 | 3.8 | 308 | 5.4 | 307 | 838.89 | 0.3 | 0.00 |
| 2026-05-05 00:15 | 5.6 | 85.7 | 3.4 | 4.1 | 312 | 5.4 | 313 | 838.99 | 0.3 | 0.00 |
| 2026-05-05 00:10 | 5.7 | 86.0 | 3.5 | 4.4 | 309 | 5.7 | 303 | 838.96 | 0.4 | 0.00 |
| 2026-05-05 00:05 | 5.7 | 85.6 | 3.5 | 4.5 | 296 | 5.8 | 291 | 838.93 | 0.4 | 0.00 |
| 2026-05-05 00:00 | 5.8 | 84.3 | 3.3 | 4.2 | 296 | 5.5 | 315 | 838.91 | 0.3 | 0.25 |
| 2026-05-04 23:55 | 5.9 | 83.8 | 3.3 | 4.4 | 305 | 6.6 | 316 | 838.87 | 0.2 | 0.00 |
| 2026-05-04 23:50 | 5.9 | 83.2 | 3.3 | 5.3 | 307 | 6.8 | 305 | 838.92 | 0.2 | 0.00 |
| 2026-05-04 23:45 | 6.1 | 82.8 | 3.4 | 5.0 | 315 | 6.1 | 317 | 838.99 | 0.2 | 0.25 |
| 2026-05-04 23:40 | 6.2 | 80.6 | 3.1 | 6.1 | 301 | 7.9 | 314 | 838.97 | 0.3 | 0.00 |
| 2026-05-04 23:35 | 6.3 | 81.4 | 3.4 | 6.4 | 325 | 8.0 | 322 | 838.96 | 0.2 | 0.00 |
| 2026-05-04 23:30 | 6.4 | 80.2 | 3.3 | 6.4 | 306 | 8.6 | 336 | 838.94 | 0.3 | 0.00 |
| 2026-05-04 23:25 | 6.5 | 80.6 | 3.4 | 5.5 | 331 | 8.2 | 324 | 838.93 | 0.2 | 0.00 |
| 2026-05-04 23:20 | 6.6 | 81.2 | 3.6 | 5.0 | 329 | 6.5 | 325 | 838.94 | 0.3 | 0.00 |
| 2026-05-04 23:15 | 6.7 | 79.7 | 3.4 | 5.3 | 318 | 7.1 | 318 | 838.93 | 0.3 | 0.00 |
| 2026-05-04 23:10 | 6.8 | 80.1 | 3.6 | 5.9 | 322 | 7.6 | 321 | 838.82 | 0.3 | 0.00 |
| 2026-05-04 23:05 | 6.9 | 79.1 | 3.6 | 6.3 | 324 | 9.1 | 301 | 838.80 | 0.3 | 0.00 |
| 2026-05-04 23:00 | 7.1 | 78.0 | 3.5 | 7.0 | 309 | 9.4 | 331 | 838.77 | 0.2 | 0.00 |
| 2026-05-04 22:55 | 7.1 | 78.2 | 3.5 | 6.9 | 296 | 8.8 | 314 | 838.76 | 0.2 | 0.00 |
| 2026-05-04 22:50 | 7.0 | 78.2 | 3.4 | 5.9 | 297 | 7.8 | 306 | 838.66 | 0.3 | 0.00 |
| 2026-05-04 22:45 | 6.9 | 79.9 | 3.7 | 4.8 | 295 | 6.4 | 274 | 838.48 | 0.4 | 0.00 |
| 2026-05-04 22:40 | 6.9 | 81.7 | 4.0 | 4.4 | 306 | 5.7 | 314 | 838.34 | 0.3 | 0.00 |
| 2026-05-04 22:35 | 6.9 | 81.6 | 4.0 | 5.2 | 333 | 6.8 | 327 | 838.21 | 0.4 | 0.00 |
| 2026-05-04 22:30 | 7.2 | 82.1 | 4.4 | 5.8 | 339 | 7.9 | 353 | 838.15 | 0.4 | 0.00 |
| 2026-05-04 22:25 | 7.9 | 80.0 | 4.7 | 7.5 | 351 | 10.2 | 356 | 838.03 | 0.3 | 0.00 |
| 2026-05-04 22:20 | 9.1 | 77.5 | 5.4 | 7.9 | 4 | 13.4 | 5 | 837.89 | 0.2 | 0.00 |
| 2026-05-04 22:15 | 9.7 | 85.9 | 7.5 | 3.8 | 353 | 5.0 | 350 | 837.60 | 0.4 | 0.00 |
| 2026-05-04 22:10 | 9.7 | 86.8 | 7.6 | 3.5 | 338 | 4.2 | 354 | 837.48 | 0.4 | 0.00 |

Scientist
Cooperative Institute for Research in the Atmosphere
Colorado State University
1375 Campus Delivery
Fort Collins, CO 80523-1375
970-491-8446
Teams: